Regional Weather Roundup
Issued by NWS

Home | Current Version | Previous Version | Graphics & Text | Print | Product List | Glossary On
Versions: 1 2 3 4 5 6 7 8 9 10 11 12 13 14 15 16 17 18 19 20 21 22 23 24 25 26 27 28 29 30 31 32 33 34 35 36 37 38 39 40 41 42 43 44 45 46 47 48 49 50
000
ASUS43 KDTX 181701
RWRMI
MICHIGAN HOURLY REGIONAL WEATHER ROUNDUP
NATIONAL WEATHER SERVICE DETROIT/PONTIAC MI
1200 PM EST MON DEC 18 2017

NOTE: "FAIR" INDICATES FEW OR NO CLOUDS BELOW 12,000 FEET WITH NO
SIGNIFICANT WEATHER AND/OR OBSTRUCTION TO VISIBILITY.

MIZ047>049-052>055-059>063-066>070-074>076-081>083-181800-
SOUTHEAST LOWER MICHIGAN

CITY           SKY/WX    TMP DP  RH WIND       PRES   REMARKS
ADRIAN         CLOUDY    39  38  96 W9        29.94F FOG     WCI  33
ALMA           CLOUDY    37  37 100 SW8       29.85F FOG     WCI  31
ANN ARBOR      FOG       37  37 100 SW10      29.91F VSB 1/2 WCI  30
BAD AXE        MIX PCPN  34  34  99 SW5       29.84F VSB 1/2 WCI  30
CARO           LGT RAIN  37  37 100 SW7       29.84F WCI  31
DETROIT CITY   CLOUDY    39  37  92 SW13      29.91F FOG     WCI  31
DETROIT        CLOUDY    41  37  86 SW15      29.92F FOG
FLINT          CLOUDY    38  37  97 SW12      29.87F FOG     WCI  30
GROSSE ILE     CLOUDY    39  37  93 SW8       29.92F FOG     WCI  33
HILLSDALE      FOG       37  36  93 SW8       29.91S VSB 1/4 WCI  31
HOWELL         CLOUDY    38  38 100 SW10      29.88F FOG     WCI  31

CITY           SKY/WX    TMP DP  RH WIND       PRES   REMARKS
JACKSON        FOG       39  38  96 S13       29.89F VSB 1/2 WCI  31
LAMBERTVILLE   CLOUDY    40  39  95 SW8       29.94F FOG     WCI  35
LANSING        CLOUDY    38  38 100 SW13      29.88F FOG     WCI  30
LAPEER         DRIZZLE   38  38  98 SW10      29.86F WCI  31
MASON          CLOUDY    39  36  88 SW8       29.88F FOG     WCI  34
MT. CLEMENS    CLOUDY    38  38 100 SW12      29.88F WCI  31
PONTIAC        LGT RAIN  37  37 100 SW8       29.87F VSB 1   WCI  31
PORT HOPE        N/A     34  33  96 CALM      29.83F
PORT HURON     LGT RAIN  36  34  93 S7        29.89F WCI  30
TRI CITIES     FOG       36  36 100 SW10      29.85F VSB 3/4 WCI  28
MIDLAND        LGT RAIN  34  34 100 CALM      29.84F VSB 1/4
TROY           CLOUDY    38  37  94 SW8       29.91F FOG     WCI  32
SAGINAW HB     CLOUDY    36  36 100 SW9       29.84F FOG     WCI  29
$$
MIZ043>046-050>051-056>058-064>065-071>073-077>080-181800-
SOUTHWEST LOWER MICHIGAN

CITY           SKY/WX    TMP DP  RH WIND       PRES   REMARKS
BATTLE CREEK   FOG       39  38  96 SW13      29.90S VSB 1/2 WCI  31
BENTON HARBOR  LGT RAIN  43  40  89 SW14G23   29.91F FOG
BIG RAPIDS     FOG       33  32  98 CALM      29.83F VSB 1/2
COLDWATER      CLOUDY    40  40 100 SW12      29.92F FOG     WCI  33
HOLLAND        CLOUDY    41  37  86 W17       29.89S
GRAND RAPIDS   CLOUDY    39  38  96 SW13      29.87F FOG     WCI  31
IONIA          DRIZZLE   38  37  99 SW12      29.86F WCI  30
KALAMAZOO      FOG       40  38  93 SW12      29.91F VSB 3/4 WCI  33
LUDINGTON      CLOUDY    35  32  87 SW7       29.83F FOG     WCI  29
MARSHALL       FOG       39  38  98 SW9G17    29.89F VSB 3/4 WCI  33
MOUNT PLEASANT FOG       35  34  96 CALM      29.83F VSB<1/4
MUSKEGON       CLOUDY    40  35  83 W9        29.87F HAZE    WCI  34
SOUTH HAVEN    CLOUDY    43  41  93 SW14G22   29.90F FOG
$$
MIZ016>042-181800-
NORTHERN LOWER MICHIGAN

CITY           SKY/WX    TMP DP  RH WIND       PRES   REMARKS
ALPENA         FOG       30  30 100 S3        29.82F VSB 3/4
BEAVER ISLAND  CLOUDY    35  32  87 SW7       29.78F WCI  30
BELLAIRE       CLOUDY    33  33 100 S6        29.81F FOG     WCI  27
CADILLAC       CLOUDY    32  31  98 W8        29.80S FOG     WCI  24
CHARLEVOIX     CLOUDY    34  34 100 SW7       29.82F FOG     WCI  28
FRANKFORT      CLOUDY    34  33  94 SW7G17    29.84R FOG     WCI  28
GAYLORD        FOG       30  28  92 SW7       29.78F VSB 1/4 WCI  23
GRAYLING       CLOUDY    31  30  94 SW6       29.81F FOG     WCI  26
HARBOR SPRINGS CLOUDY    32  31  99 S6        29.79F FOG     WCI  26
HOUGHTON LAKE  LGT SNOW  30  29  96 CALM      29.80F FOG
MANISTEE       CLOUDY    35  32  88 SW7       29.83F FOG     WCI  29
OSCODA         LGT SNOW  29  28  95 SW3       29.84F
PELLSTON       CLOUDY    31  31 100 S7        29.79F FOG     WCI  24
ROGERS CITY    CLOUDY    32  29  91 SW8       29.82F FOG     WCI  24
TRAVERSE CITY  CLOUDY    35  31  85 SW5       29.80F FOG     WCI  31
$$
MIZ007>008-015-181800-
EASTERN UPPER MICHIGAN

CITY           SKY/WX    TMP DP  RH WIND       PRES   REMARKS
MACKINAC ISLAN FOG       32  32 100 S7        29.77F VSB 3/4 WCI  26
NEWBERRY       FOG       29  28  97 SW8       29.75S VSB 3/4 WCI  21
S. S. MARIE    CLOUDY    25  23  92 E6        29.76F FOG     WCI  18
MUNISING         N/A     29  27  92 S10       29.73F WCI  20
$$
MIZ004>006-011>014-085-181800-
CENTRAL UPPER MICHIGAN

CITY           SKY/WX    TMP DP  RH WIND       PRES   REMARKS
MANISTIQUE     CLOUDY    30  25  81 SW5       29.77F HAZE    WCI  25
ESCANABA       MIX PCPN  31  26  82 SW7       29.78F WCI  24
MENOMINEE      CLOUDY    31  28  89 W9        29.81F FOG     WCI  23
SAWYER-GWINN   CLOUDY    27  27 100 SW10      29.72F FOG     WCI  17
$$
MIZ001>003-009>011-084-181800-
WESTERN UPPER MICHIGAN

CITY           SKY/WX    TMP DP  RH WIND       PRES   REMARKS
IRON MOUNTAIN  CLOUDY    30  26  85 S7        29.73F WCI  23
HOUGHTON       CLOUDY    29  23  78 S6        29.66F WCI  23
COPPER HARBOR    N/A     31  25  78 VRB3      29.68F
IRONWOOD       CLOUDY    31  26  82 S14       29.69F WCI  21
$$

ABBREVIATIONS USED IN REMARKS
   TC - TEMPERATURE IN CELSIUS
  WCI - WIND CHILL INDEX
   HX - HEAT INDEX
  VSB - VISIBILITY





USA.gov is the U.S. government's official web portal to all federal, state and local government web resources and services.